Terminal Aerodrome Forecast
Issued by NWS

Home | Current Version | Previous Version | Text Only | Print | Product List | Glossary On
Versions: 1 2 3 4 5 6 7 8 9 10 11 12
602
FTUS44 KLZK 200531
TAFHRO
TAF
KHRO 200531Z 2006/2106 15006KT P6SM BKN250
     FM201400 15009G16KT P6SM BKN250=

USA.gov is the U.S. government's official web portal to all federal, state and local government web resources and services.